Terminal Aerodrome Forecast
Issued by NWS

Home | Current Version | Previous Version | Graphics & Text | Print | Product List | Glossary Off
Versions: 1 2 3 4 5 6 7 8 9 10 11 12 13 14 15 16 17 18 19 20 21

000
FTUS43 KGRB 221800 AAA
TAFATW
TAF AMD
KATW 221849Z 2219/2318 13010KT 4SM BR BKN020 OVC035
      TEMPO 2219/2221 3SM BR BKN010 OVC035
     FM222100 10010KT 4SM BR BKN015 OVC040
      TEMPO 2222/2302 2SM -SN BR
     FM230200 07013G20KT 1 1/2SM -RAPL BR OVC008
     FM231000 05014G22KT 2SM -RAPL BR OVC006
     FM231400 07008KT 3SM -RASN BR OVC006
      TEMPO 2314/2318 1SM -SN OVC003=

USA.gov is the U.S. government's official web portal to all federal, state and local government web resources and services.